Time,TemperatureF,DewpointF,PressureIn,WindDirection,WindDirectionDegrees,WindSpeedMPH,WindSpeedGustMPH,Humidity,HourlyPrecipIn,Conditions,Clouds,dailyrainin,SoftwareType,DateUTC
2013-05-12 00:01:00,66.4,65.8,29.80,ESE,112,0.0,0.0,98,0.00,CLR,,0.21,WeatherDisplay:10.37,2013-05-12 04:01:00,
2013-05-12 00:02:00,66.4,65.8,29.80,ESE,112,0.0,0.0,98,0.00,RA,,0.00,WeatherDisplay:10.37,2013-05-12 04:02:00,
2013-05-12 00:07:00,66.4,65.8,29.80,ESE,112,0.0,0.0,98,0.00,RA,,0.00,WeatherDisplay:10.37,2013-05-12 04:07:00,
2013-05-12 00:12:00,66.4,65.8,29.80,ESE,112,0.0,0.0,98,0.00,CLR,,0.00,WeatherDisplay:10.37,2013-05-12 04:12:00,
2013-05-12 00:17:00,66.2,65.6,29.80,ESE,112,0.0,0.0,98,0.00,CLR,,0.00,WeatherDisplay:10.37,2013-05-12 04:17:00,
2013-05-12 00:22:00,66.2,65.6,29.80,ESE,112,0.0,0.0,98,0.00,CLR,,0.00,WeatherDisplay:10.37,2013-05-12 04:22:00,
2013-05-12 00:27:00,66.2,65.6,29.80,ESE,112,0.0,0.0,98,0.00,CLR,,0.00,WeatherDisplay:10.37,2013-05-12 04:27:00,
2013-05-12 00:32:00,66.0,65.4,29.80,ESE,112,0.0,0.0,98,0.00,CLR,,0.00,WeatherDisplay:10.37,2013-05-12 04:32:00,
2013-05-12 00:37:00,66.0,65.4,29.80,ESE,112,0.0,0.0,98,0.00,CLR,,0.00,WeatherDisplay:10.37,2013-05-12 04:37:00,
2013-05-12 00:42:00,66.0,65.4,29.80,North,0,0.0,0.0,98,0.00,CLR,,0.00,WeatherDisplay:10.37,2013-05-12 04:42:00,
2013-05-12 00:47:00,66.0,65.4,29.80,North,0,0.0,0.0,98,0.00,CLR,,0.00,WeatherDisplay:10.37,2013-05-12 04:47:00,
2013-05-12 00:52:00,66.0,65.4,29.80,North,0,0.0,0.0,98,0.00,CLR,,0.00,WeatherDisplay:10.37,2013-05-12 04:52:00,
2013-05-12 00:57:00,65.8,65.3,29.80,North,0,0.0,0.0,98,0.00,CLR,,0.00,WeatherDisplay:10.37,2013-05-12 04:57:00,
2013-05-12 01:02:00,65.8,65.3,29.80,North,0,0.0,0.0,98,0.00,CLR,,0.00,WeatherDisplay:10.37,2013-05-12 05:02:00,
2013-05-12 01:07:00,65.8,65.3,29.80,North,0,0.0,0.0,98,0.00,CLR,,0.00,WeatherDisplay:10.37,2013-05-12 05:07:00,
2013-05-12 01:12:00,65.8,65.3,29.80,North,0,0.0,0.0,98,0.00,CLR,,0.00,WeatherDisplay:10.37,2013-05-12 05:12:00,
2013-05-12 01:17:00,65.7,65.1,29.80,North,0,0.0,0.0,98,0.00,CLR,,0.00,WeatherDisplay:10.37,2013-05-12 05:17:00,
2013-05-12 01:22:00,65.7,65.1,29.80,North,0,0.0,0.0,98,0.00,CLR,,0.00,WeatherDisplay:10.37,2013-05-12 05:22:00,
2013-05-12 01:27:00,65.7,65.1,29.80,North,0,0.0,0.0,98,0.00,CLR,,0.00,WeatherDisplay:10.37,2013-05-12 05:27:00,
2013-05-12 01:32:00,65.7,65.1,29.80,North,0,0.0,0.0,98,0.00,CLR,,0.00,WeatherDisplay:10.37,2013-05-12 05:32:00,
2013-05-12 01:37:00,65.5,64.9,29.80,North,0,0.0,0.0,98,0.00,CLR,,0.00,WeatherDisplay:10.37,2013-05-12 05:37:00,
2013-05-12 01:42:00,65.5,64.9,29.80,North,0,0.0,0.0,98,0.00,CLR,,0.00,WeatherDisplay:10.37,2013-05-12 05:42:00,
2013-05-12 01:47:00,65.5,64.9,29.80,North,0,0.0,0.0,98,0.00,CLR,,0.00,WeatherDisplay:10.37,2013-05-12 05:47:00,
2013-05-12 01:52:00,65.3,64.7,29.80,North,0,0.0,0.0,98,0.00,CLR,,0.00,WeatherDisplay:10.37,2013-05-12 05:52:00,
2013-05-12 01:57:00,65.3,64.7,29.80,North,0,0.0,0.0,98,0.00,CLR,,0.00,WeatherDisplay:10.37,2013-05-12 05:57:00,
2013-05-12 02:02:00,65.3,64.7,29.80,North,0,0.0,0.0,98,0.00,CLR,,0.00,WeatherDisplay:10.37,2013-05-12 06:02:00,
2013-05-12 02:07:00,65.1,64.5,29.80,North,0,0.0,0.0,98,0.00,CLR,,0.00,WeatherDisplay:10.37,2013-05-12 06:07:00,
2013-05-12 02:12:00,64.9,64.4,29.80,North,0,0.0,0.0,98,0.00,CLR,,0.00,WeatherDisplay:10.37,2013-05-12 06:12:00,
2013-05-12 02:17:00,64.9,64.4,29.80,North,0,0.0,0.0,98,0.00,CLR,,0.00,WeatherDisplay:10.37,2013-05-12 06:17:00,
2013-05-12 02:22:00,64.8,64.2,29.80,North,0,0.0,0.0,98,0.00,CLR,,0.00,WeatherDisplay:10.37,2013-05-12 06:22:00,
2013-05-12 02:27:00,64.8,64.2,29.80,North,0,0.0,0.0,98,0.00,CLR,,0.00,WeatherDisplay:10.37,2013-05-12 06:27:00,
2013-05-12 02:32:00,64.8,64.2,29.80,North,0,0.0,0.0,98,0.00,CLR,,0.00,WeatherDisplay:10.37,2013-05-12 06:32:00,
2013-05-12 02:37:00,64.8,64.2,29.80,North,0,0.0,0.0,98,0.00,CLR,,0.00,WeatherDisplay:10.37,2013-05-12 06:37:00,
2013-05-12 02:42:00,64.8,64.2,29.80,North,0,0.0,0.0,98,0.00,CLR,,0.00,WeatherDisplay:10.37,2013-05-12 06:42:00,
2013-05-12 02:47:00,64.6,64.0,29.80,North,0,0.0,0.0,98,0.00,CLR,,0.00,WeatherDisplay:10.37,2013-05-12 06:47:00,
2013-05-12 02:52:00,64.6,64.0,29.80,North,0,0.0,0.0,98,0.00,CLR,,0.00,WeatherDisplay:10.37,2013-05-12 06:52:00,
2013-05-12 02:57:00,64.6,64.0,29.80,North,0,0.0,0.0,98,0.00,CLR,,0.00,WeatherDisplay:10.37,2013-05-12 06:57:00,
2013-05-12 03:02:00,64.6,64.0,29.80,North,0,0.0,0.0,98,0.00,CLR,,0.00,WeatherDisplay:10.37,2013-05-12 07:02:00,
2013-05-12 03:07:00,64.6,64.0,29.80,North,0,0.0,0.0,98,0.00,CLR,,0.00,WeatherDisplay:10.37,2013-05-12 07:07:00,
2013-05-12 03:12:00,64.6,64.0,29.80,North,0,0.0,0.0,98,0.00,CLR,,0.00,WeatherDisplay:10.37,2013-05-12 07:12:00,
2013-05-12 03:17:00,64.4,63.8,29.80,North,0,0.0,0.0,98,0.00,CLR,,0.00,WeatherDisplay:10.37,2013-05-12 07:17:00,
2013-05-12 03:22:00,64.4,63.8,29.80,North,0,0.0,0.0,98,0.00,CLR,,0.00,WeatherDisplay:10.37,2013-05-12 07:22:00,
2013-05-12 03:27:00,64.4,63.8,29.80,North,0,0.0,0.0,98,0.00,CLR,,0.00,WeatherDisplay:10.37,2013-05-12 07:27:00,
2013-05-12 03:32:00,64.4,63.8,29.80,North,0,0.0,0.0,98,0.00,CLR,,0.00,WeatherDisplay:10.37,2013-05-12 07:32:00,
2013-05-12 03:37:00,64.4,63.8,29.80,North,0,0.0,0.0,98,0.00,CLR,,0.00,WeatherDisplay:10.37,2013-05-12 07:37:00,
2013-05-12 03:42:00,64.4,63.8,29.80,North,0,0.0,0.0,98,0.00,CLR,,0.00,WeatherDisplay:10.37,2013-05-12 07:42:00,
2013-05-12 03:47:00,64.2,63.6,29.80,North,0,0.0,0.0,98,0.00,CLR,,0.00,WeatherDisplay:10.37,2013-05-12 07:47:00,
2013-05-12 03:52:00,64.2,63.6,29.80,North,0,0.0,0.0,98,0.00,CLR,,0.00,WeatherDisplay:10.37,2013-05-12 07:52:00,
2013-05-12 03:57:00,64.2,63.6,29.83,North,0,0.0,0.0,98,0.00,CLR,,0.00,WeatherDisplay:10.37,2013-05-12 07:57:00,
2013-05-12 04:02:00,64.0,63.5,29.83,North,0,0.0,0.0,98,0.00,CLR,,0.00,WeatherDisplay:10.37,2013-05-12 08:02:00,
2013-05-12 04:07:00,64.0,63.5,29.83,North,0,0.0,0.0,98,0.00,CLR,,0.00,WeatherDisplay:10.37,2013-05-12 08:07:00,
2013-05-12 04:12:00,64.0,63.5,29.80,North,0,0.0,0.0,98,0.00,CLR,,0.00,WeatherDisplay:10.37,2013-05-12 08:12:00,
2013-05-12 04:17:00,63.9,63.3,29.80,North,0,0.0,0.0,98,0.00,CLR,,0.00,WeatherDisplay:10.37,2013-05-12 08:17:00,
2013-05-12 04:22:00,63.9,63.3,29.80,North,0,0.0,0.0,98,0.00,CLR,,0.00,WeatherDisplay:10.37,2013-05-12 08:22:00,
2013-05-12 04:27:00,63.9,63.3,29.80,North,0,0.0,0.0,98,0.00,CLR,,0.00,WeatherDisplay:10.37,2013-05-12 08:27:00,
2013-05-12 04:32:00,63.9,63.3,29.80,North,0,0.0,0.0,98,0.00,CLR,,0.00,WeatherDisplay:10.37,2013-05-12 08:32:00,
2013-05-12 04:37:00,63.9,63.3,29.80,North,0,0.0,0.0,98,0.00,CLR,,0.00,WeatherDisplay:10.37,2013-05-12 08:37:00,
2013-05-12 04:42:00,63.9,63.3,29.80,North,0,0.0,0.0,98,0.00,CLR,,0.00,WeatherDisplay:10.37,2013-05-12 08:42:00,
2013-05-12 04:47:00,63.7,63.1,29.80,North,0,0.0,0.0,98,0.00,CLR,,0.00,WeatherDisplay:10.37,2013-05-12 08:47:00,
2013-05-12 04:52:00,63.7,63.1,29.80,North,0,0.0,0.0,98,0.00,CLR,,0.00,WeatherDisplay:10.37,2013-05-12 08:52:00,
2013-05-12 04:57:00,63.5,62.9,29.80,North,0,0.0,0.0,98,0.00,CLR,,0.00,WeatherDisplay:10.37,2013-05-12 08:57:00,
2013-05-12 05:02:00,63.5,62.9,29.80,North,0,0.0,0.0,98,0.00,CLR,,0.00,WeatherDisplay:10.37,2013-05-12 09:02:00,
2013-05-12 05:07:00,63.5,62.9,29.80,North,0,0.0,0.0,98,0.00,CLR,,0.00,WeatherDisplay:10.37,2013-05-12 09:07:00,
2013-05-12 05:12:00,63.3,62.7,29.80,North,0,0.0,0.0,98,0.00,CLR,,0.00,WeatherDisplay:10.37,2013-05-12 09:12:00,
2013-05-12 05:17:00,63.1,62.6,29.80,North,0,0.0,0.0,98,0.00,CLR,,0.00,WeatherDisplay:10.37,2013-05-12 09:17:00,
2013-05-12 05:22:00,63.0,62.4,29.80,North,0,0.0,0.0,98,0.00,CLR,,0.00,WeatherDisplay:10.37,2013-05-12 09:22:00,
2013-05-12 05:27:00,62.6,62.0,29.83,North,0,0.0,0.0,98,0.00,CLR,,0.00,WeatherDisplay:10.37,2013-05-12 09:27:00,
2013-05-12 05:32:00,62.6,62.0,29.83,North,0,0.0,0.0,98,0.00,CLR,,0.00,WeatherDisplay:10.37,2013-05-12 09:32:00,
2013-05-12 05:37:00,62.1,61.5,29.83,ENE,68,0.0,0.0,98,0.00,CLR,,0.00,WeatherDisplay:10.37,2013-05-12 09:37:00,
2013-05-12 05:42:00,61.3,60.8,29.83,NE,45,0.0,0.0,98,0.00,CLR,,0.00,WeatherDisplay:10.37,2013-05-12 09:42:00,
2013-05-12 05:47:00,61.2,60.6,29.83,NNE,22,0.0,0.0,98,0.00,CLR,,0.00,WeatherDisplay:10.37,2013-05-12 09:47:00,
2013-05-12 05:52:00,60.8,60.2,29.83,NNE,22,0.0,0.0,98,0.00,CLR,,0.00,WeatherDisplay:10.37,2013-05-12 09:52:00,
2013-05-12 05:57:00,60.4,59.9,29.83,NNE,22,0.0,0.0,98,0.00,CLR,,0.00,WeatherDisplay:10.37,2013-05-12 09:57:00,
2013-05-12 06:02:00,60.4,59.9,29.83,NNE,22,0.0,0.0,98,0.00,CLR,,0.00,WeatherDisplay:10.37,2013-05-12 10:02:00,
2013-05-12 06:07:00,60.1,59.5,29.83,NNE,22,0.0,0.0,98,0.00,CLR,,0.00,WeatherDisplay:10.37,2013-05-12 10:07:00,
2013-05-12 06:12:00,60.1,59.5,29.83,NNE,22,0.0,0.0,98,0.00,CLR,,0.00,WeatherDisplay:10.37,2013-05-12 10:12:00,
2013-05-12 06:17:00,59.7,59.2,29.83,NNE,22,0.0,0.0,98,0.00,CLR,,0.00,WeatherDisplay:10.37,2013-05-12 10:17:00,
2013-05-12 06:22:00,59.5,59.0,29.83,NNE,22,0.0,0.0,98,0.00,CLR,,0.00,WeatherDisplay:10.37,2013-05-12 10:22:00,
2013-05-12 06:27:00,59.5,59.0,29.83,NNE,22,0.0,0.0,98,0.00,CLR,,0.00,WeatherDisplay:10.37,2013-05-12 10:27:00,
2013-05-12 06:32:00,59.4,58.8,29.83,NNE,22,0.0,0.0,98,0.00,CLR,,0.00,WeatherDisplay:10.37,2013-05-12 10:32:00,
2013-05-12 06:37:00,59.4,58.8,29.83,NNE,22,0.0,0.0,98,0.00,CLR,,0.00,WeatherDisplay:10.37,2013-05-12 10:37:00,
2013-05-12 06:42:00,59.4,58.8,29.83,NNE,22,0.0,0.0,98,0.00,CLR,,0.00,WeatherDisplay:10.37,2013-05-12 10:42:00,
2013-05-12 06:47:00,59.2,58.6,29.83,NNE,22,0.0,0.0,98,0.00,CLR,,0.00,WeatherDisplay:10.37,2013-05-12 10:47:00,
2013-05-12 06:52:00,59.2,58.6,29.83,NNE,22,0.0,0.0,98,0.00,CLR,,0.00,WeatherDisplay:10.37,2013-05-12 10:52:00,
2013-05-12 06:57:00,59.2,58.6,29.85,NNE,22,0.0,0.0,98,0.00,CLR,,0.00,WeatherDisplay:10.37,2013-05-12 10:57:00,
2013-05-12 07:02:00,59.0,58.4,29.85,NNE,22,0.0,0.0,98,0.00,CLR,,0.00,WeatherDisplay:10.37,2013-05-12 11:02:00,
2013-05-12 07:07:00,58.8,58.3,29.85,NNE,22,0.0,0.0,98,0.00,CLR,,0.00,WeatherDisplay:10.37,2013-05-12 11:07:00,
2013-05-12 07:12:00,58.8,58.3,29.85,NNE,22,0.0,0.0,98,0.00,CLR,,0.00,WeatherDisplay:10.37,2013-05-12 11:12:00,
2013-05-12 07:17:00,59.0,58.4,29.85,NNE,22,0.0,0.0,98,0.00,CLR,,0.00,WeatherDisplay:10.37,2013-05-12 11:17:00,
2013-05-12 07:22:00,58.8,58.3,29.85,NNE,22,0.0,0.0,98,0.00,CLR,,0.00,WeatherDisplay:10.37,2013-05-12 11:22:00,
2013-05-12 07:27:00,58.8,58.3,29.85,NNE,22,0.0,0.0,98,0.00,CLR,,0.00,WeatherDisplay:10.37,2013-05-12 11:27:00,
2013-05-12 07:32:00,58.5,57.9,29.85,NNE,22,0.0,0.0,98,0.00,CLR,,0.00,WeatherDisplay:10.37,2013-05-12 11:32:00,
2013-05-12 07:37:00,58.8,58.3,29.85,NNE,22,0.0,0.0,98,0.00,CLR,,0.00,WeatherDisplay:10.37,2013-05-12 11:37:00,
2013-05-12 07:42:00,59.0,58.4,29.85,NNE,22,0.0,0.0,98,0.00,CLR,,0.00,WeatherDisplay:10.37,2013-05-12 11:42:00,
2013-05-12 07:47:00,59.0,58.4,29.85,NNE,22,0.0,0.0,98,0.00,CLR,,0.00,WeatherDisplay:10.37,2013-05-12 11:47:00,
2013-05-12 07:52:00,59.2,58.6,29.85,NNE,22,0.0,0.0,98,0.00,CLR,,0.00,WeatherDisplay:10.37,2013-05-12 11:52:00,
2013-05-12 07:57:00,59.0,58.4,29.85,NNE,22,0.0,0.0,98,0.00,CLR,,0.00,WeatherDisplay:10.37,2013-05-12 11:57:00,
2013-05-12 08:02:00,59.0,58.4,29.85,NNE,22,0.0,0.0,98,0.00,CLR,,0.00,WeatherDisplay:10.37,2013-05-12 12:02:00,
2013-05-12 08:07:00,59.0,58.4,29.85,NNE,22,0.0,0.0,98,0.00,CLR,,0.00,WeatherDisplay:10.37,2013-05-12 12:07:00,
2013-05-12 08:12:00,59.2,58.6,29.85,NNE,22,0.0,0.0,98,0.00,CLR,,0.00,WeatherDisplay:10.37,2013-05-12 12:12:00,
2013-05-12 08:17:00,59.0,58.4,29.85,NNE,22,0.0,0.0,98,0.00,CLR,,0.00,WeatherDisplay:10.37,2013-05-12 12:17:00,
2013-05-12 08:22:00,59.2,58.6,29.85,NNE,22,0.0,0.0,98,0.00,CLR,,0.00,WeatherDisplay:10.37,2013-05-12 12:22:00,
2013-05-12 08:27:00,59.4,58.8,29.85,NNE,22,0.0,0.0,98,0.00,CLR,,0.00,WeatherDisplay:10.37,2013-05-12 12:27:00,
2013-05-12 08:32:00,59.5,59.0,29.85,NNE,22,0.0,0.0,98,0.00,CLR,,0.00,WeatherDisplay:10.37,2013-05-12 12:32:00,
2013-05-12 08:37:00,59.7,59.2,29.85,NNE,22,0.0,0.0,98,0.00,CLR,,0.00,WeatherDisplay:10.37,2013-05-12 12:37:00,
2013-05-12 08:42:00,60.1,59.5,29.85,NNE,22,0.0,0.0,98,0.00,CLR,,0.00,WeatherDisplay:10.37,2013-05-12 12:42:00,
2013-05-12 08:47:00,59.9,59.0,29.85,NNE,22,0.0,0.0,97,0.00,CLR,,0.00,WeatherDisplay:10.37,2013-05-12 12:47:00,
2013-05-12 08:52:00,60.4,59.6,29.85,NNE,22,0.0,0.0,97,0.00,CLR,,0.00,WeatherDisplay:10.37,2013-05-12 12:52:00,
2013-05-12 08:57:00,60.8,59.7,29.85,East,90,0.0,0.0,96,0.00,CLR,,0.00,WeatherDisplay:10.37,2013-05-12 12:57:00,
2013-05-12 09:02:00,61.0,59.2,29.85,East,90,0.0,0.0,94,0.00,CLR,,0.00,WeatherDisplay:10.37,2013-05-12 13:02:00,
2013-05-12 09:07:00,61.0,58.6,29.85,NNW,338,0.0,0.0,92,0.00,CLR,,0.00,WeatherDisplay:10.37,2013-05-12 13:07:00,
2013-05-12 09:12:00,61.3,57.8,29.85,NW,315,0.0,0.0,88,0.00,CLR,,0.00,WeatherDisplay:10.37,2013-05-12 13:12:00,
2013-05-12 09:17:00,62.1,56.5,29.88,NW,315,0.0,0.0,82,0.00,CLR,,0.00,WeatherDisplay:10.37,2013-05-12 13:17:00,
2013-05-12 09:22:00,62.8,56.5,29.88,NW,315,0.0,0.0,80,0.00,CLR,,0.00,WeatherDisplay:10.37,2013-05-12 13:22:00,
2013-05-12 09:27:00,63.5,55.4,29.88,NW,315,0.0,0.0,75,0.00,CLR,,0.00,WeatherDisplay:10.37,2013-05-12 13:27:00,
2013-05-12 09:32:00,64.2,54.6,29.88,NW,315,0.0,0.0,71,0.00,CLR,,0.00,WeatherDisplay:10.37,2013-05-12 13:32:00,
2013-05-12 09:37:00,64.4,52.0,29.88,NW,315,0.0,0.0,64,0.00,CLR,,0.00,WeatherDisplay:10.37,2013-05-12 13:37:00,
2013-05-12 09:42:00,65.1,50.4,29.88,NW,315,0.0,0.0,59,0.00,CLR,,0.00,WeatherDisplay:10.37,2013-05-12 13:42:00,
2013-05-12 09:47:00,65.5,48.9,29.88,NW,315,0.0,0.0,55,0.00,CLR,,0.00,WeatherDisplay:10.37,2013-05-12 13:47:00,
2013-05-12 09:52:00,66.0,47.4,29.88,NW,315,0.0,0.0,51,0.00,CLR,,0.00,WeatherDisplay:10.37,2013-05-12 13:52:00,
2013-05-12 09:57:00,66.6,48.4,29.88,NW,315,0.0,0.0,52,0.00,CLR,,0.00,WeatherDisplay:10.37,2013-05-12 13:57:00,
2013-05-12 10:02:00,66.7,44.1,29.88,NW,315,0.0,0.0,44,0.00,CLR,,0.00,WeatherDisplay:10.37,2013-05-12 14:02:00,
2013-05-12 10:07:00,67.3,44.0,29.88,NW,315,0.0,0.0,43,0.00,CLR,,0.00,WeatherDisplay:10.37,2013-05-12 14:07:00,
2013-05-12 10:12:00,68.2,45.4,29.88,NW,315,0.0,0.0,44,0.00,CLR,,0.00,WeatherDisplay:10.37,2013-05-12 14:12:00,
2013-05-12 10:17:00,68.7,44.7,29.88,NW,315,0.0,0.0,42,0.00,CLR,,0.00,WeatherDisplay:10.37,2013-05-12 14:17:00,
2013-05-12 10:22:00,70.0,45.2,29.88,NW,315,0.0,0.0,41,0.00,CLR,,0.00,WeatherDisplay:10.37,2013-05-12 14:22:00,
2013-05-12 10:27:00,70.9,44.7,29.88,NW,315,0.0,0.0,39,0.00,CLR,,0.00,WeatherDisplay:10.37,2013-05-12 14:27:00,
2013-05-12 10:32:00,70.7,41.7,29.88,NW,315,0.0,0.0,35,0.00,CLR,,0.00,WeatherDisplay:10.37,2013-05-12 14:32:00,
2013-05-12 10:37:00,72.1,45.1,29.88,NW,315,0.0,0.0,38,0.00,CLR,,0.00,WeatherDisplay:10.37,2013-05-12 14:37:00,
2013-05-12 10:42:00,71.8,41.9,29.88,NW,315,0.0,0.0,34,0.00,CLR,,0.00,WeatherDisplay:10.37,2013-05-12 14:42:00,
2013-05-12 10:47:00,73.0,43.8,29.88,NW,315,0.0,0.0,35,0.00,CLR,,0.00,WeatherDisplay:10.37,2013-05-12 14:47:00,
2013-05-12 10:52:00,73.0,42.2,29.88,NW,315,0.0,0.0,33,0.00,CLR,,0.00,WeatherDisplay:10.37,2013-05-12 14:52:00,
2013-05-12 10:57:00,70.0,38.8,29.88,NW,315,0.0,0.0,32,0.00,CLR,,0.00,WeatherDisplay:10.37,2013-05-12 14:57:00,
2013-05-12 11:02:00,72.0,42.0,29.88,NW,315,0.0,0.0,34,0.00,CLR,,0.00,WeatherDisplay:10.37,2013-05-12 15:02:00,
2013-05-12 11:07:00,72.7,41.9,29.88,NW,315,0.0,0.0,33,0.00,CLR,,0.00,WeatherDisplay:10.37,2013-05-12 15:07:00,
2013-05-12 11:12:00,73.2,42.4,29.88,NW,315,0.0,0.0,33,0.00,CLR,,0.00,WeatherDisplay:10.37,2013-05-12 15:12:00,
2013-05-12 11:17:00,71.8,40.3,29.88,NW,315,0.0,0.0,32,0.00,CLR,,0.00,WeatherDisplay:10.37,2013-05-12 15:17:00,
2013-05-12 11:22:00,72.5,41.0,29.88,NW,315,0.0,0.0,32,0.00,CLR,,0.00,WeatherDisplay:10.37,2013-05-12 15:22:00,
2013-05-12 11:27:00,72.5,41.0,29.88,NW,315,0.0,0.0,32,0.00,CLR,,0.00,WeatherDisplay:10.37,2013-05-12 15:27:00,
2013-05-12 11:32:00,71.6,41.7,29.88,NW,315,0.0,0.0,34,0.00,CLR,,0.00,WeatherDisplay:10.37,2013-05-12 15:32:00,
2013-05-12 11:37:00,72.5,42.5,29.88,NW,315,0.0,0.0,34,0.00,CLR,,0.00,WeatherDisplay:10.37,2013-05-12 15:37:00,
2013-05-12 11:42:00,71.2,40.6,29.88,NW,315,0.0,0.0,33,0.00,CLR,,0.00,WeatherDisplay:10.37,2013-05-12 15:42:00,
2013-05-12 11:47:00,72.1,41.4,29.88,NW,315,0.0,0.0,33,0.00,CLR,,0.00,WeatherDisplay:10.37,2013-05-12 15:47:00,
2013-05-12 11:52:00,72.1,43.0,29.88,NW,315,0.0,0.0,35,0.00,CLR,,0.00,WeatherDisplay:10.37,2013-05-12 15:52:00,
2013-05-12 11:57:00,71.2,41.4,29.88,NW,315,0.0,0.0,34,0.00,CLR,,0.00,WeatherDisplay:10.37,2013-05-12 15:57:00,
2013-05-12 12:02:00,71.1,42.0,29.88,NW,315,0.0,0.0,35,0.00,CLR,,0.00,WeatherDisplay:10.37,2013-05-12 16:02:00,
2013-05-12 12:07:00,72.5,41.7,29.88,NW,315,0.0,0.0,33,0.00,CLR,,0.00,WeatherDisplay:10.37,2013-05-12 16:07:00,
2013-05-12 12:12:00,73.2,42.4,29.88,NW,315,0.0,0.0,33,0.00,CLR,,0.00,WeatherDisplay:10.37,2013-05-12 16:12:00,
2013-05-12 12:17:00,74.5,42.7,29.88,NW,315,0.0,0.0,32,0.00,CLR,,0.00,WeatherDisplay:10.37,2013-05-12 16:17:00,
2013-05-12 12:22:00,73.8,40.4,29.88,NW,315,0.0,0.0,30,0.00,CLR,,0.00,WeatherDisplay:10.37,2013-05-12 16:22:00,
2013-05-12 12:27:00,74.7,42.0,29.88,NW,315,0.0,0.0,31,0.00,CLR,,0.00,WeatherDisplay:10.37,2013-05-12 16:27:00,
2013-05-12 12:32:00,74.7,41.2,29.88,NW,315,0.0,0.0,30,0.00,CLR,,0.00,WeatherDisplay:10.37,2013-05-12 16:32:00,
2013-05-12 12:37:00,74.7,36.5,29.88,NW,315,0.0,0.0,25,0.00,CLR,,0.00,WeatherDisplay:10.37,2013-05-12 16:37:00,
2013-05-12 12:42:00,75.0,37.8,29.88,NW,315,0.0,0.0,26,0.00,CLR,,0.00,WeatherDisplay:10.37,2013-05-12 16:42:00,
2013-05-12 12:47:00,76.3,37.9,29.88,NW,315,0.0,0.0,25,0.00,CLR,,0.00,WeatherDisplay:10.37,2013-05-12 16:47:00,
2013-05-12 12:52:00,75.2,36.9,29.88,NW,315,0.0,0.0,25,0.00,CLR,,0.00,WeatherDisplay:10.37,2013-05-12 16:52:00,
2013-05-12 12:57:00,75.6,38.2,29.88,NW,315,0.0,0.0,26,0.00,CLR,,0.00,WeatherDisplay:10.37,2013-05-12 16:57:00,
2013-05-12 13:02:00,75.4,37.1,29.88,NW,315,0.0,0.0,25,0.00,CLR,,0.00,WeatherDisplay:10.37,2013-05-12 17:02:00,
2013-05-12 13:07:00,73.8,34.7,29.88,NW,315,0.0,0.0,24,0.00,CLR,,0.00,WeatherDisplay:10.37,2013-05-12 17:07:00,
2013-05-12 13:12:00,74.3,36.2,29.88,NW,315,0.0,0.0,25,0.00,CLR,,0.00,WeatherDisplay:10.37,2013-05-12 17:12:00,
2013-05-12 13:17:00,74.5,36.3,29.88,NW,315,0.0,0.0,25,0.00,CLR,,0.00,WeatherDisplay:10.37,2013-05-12 17:17:00,
2013-05-12 13:22:00,74.7,35.5,29.88,NW,315,0.0,0.0,24,0.00,CLR,,0.00,WeatherDisplay:10.37,2013-05-12 17:22:00,
2013-05-12 13:27:00,75.2,35.9,29.88,NW,315,0.0,0.0,24,0.00,CLR,,0.00,WeatherDisplay:10.37,2013-05-12 17:27:00,
2013-05-12 13:32:00,75.6,37.2,29.88,NW,315,0.0,0.0,25,0.00,CLR,,0.00,WeatherDisplay:10.37,2013-05-12 17:32:00,
2013-05-12 13:37:00,75.0,35.8,29.88,NW,315,0.0,0.0,24,0.00,CLR,,0.00,WeatherDisplay:10.37,2013-05-12 17:37:00,
2013-05-12 13:42:00,75.7,36.4,29.88,NW,315,0.0,0.0,24,0.00,CLR,,0.00,WeatherDisplay:10.37,2013-05-12 17:42:00,
2013-05-12 13:47:00,74.7,35.5,29.88,NW,315,0.0,0.0,24,0.00,CLR,,0.00,WeatherDisplay:10.37,2013-05-12 17:47:00,
2013-05-12 13:52:00,75.7,37.4,29.88,NW,315,0.0,0.0,25,0.00,CLR,,0.00,WeatherDisplay:10.37,2013-05-12 17:52:00,
2013-05-12 13:57:00,76.5,38.0,29.88,NW,315,0.0,0.0,25,0.00,CLR,,0.00,WeatherDisplay:10.37,2013-05-12 17:57:00,
2013-05-12 14:02:00,75.6,36.2,29.88,NW,315,0.0,0.0,24,0.00,CLR,,0.00,WeatherDisplay:10.37,2013-05-12 18:02:00,
2013-05-12 14:07:00,74.7,34.4,29.88,NW,315,0.0,0.0,23,0.00,CLR,,0.00,WeatherDisplay:10.37,2013-05-12 18:07:00,
2013-05-12 14:12:00,75.0,35.8,29.88,North,0,0.0,0.0,24,0.00,CLR,,0.00,WeatherDisplay:10.37,2013-05-12 18:12:00,
2013-05-12 14:17:00,76.5,37.0,29.88,ESE,112,0.0,0.0,24,0.00,CLR,,0.00,WeatherDisplay:10.37,2013-05-12 18:17:00,
2013-05-12 14:22:00,76.1,34.5,29.88,ESE,112,0.0,0.0,22,0.00,CLR,,0.00,WeatherDisplay:10.37,2013-05-12 18:22:00,
2013-05-12 14:27:00,77.0,34.1,29.88,SE,135,0.0,0.0,21,0.00,CLR,,0.00,WeatherDisplay:10.37,2013-05-12 18:27:00,
2013-05-12 14:32:00,77.0,35.2,29.88,SE,135,3.6,0.0,22,0.00,CLR,,0.00,WeatherDisplay:10.37,2013-05-12 18:32:00,
2013-05-12 14:37:00,77.4,34.4,29.88,SE,135,0.0,0.0,21,0.00,CLR,,0.00,WeatherDisplay:10.37,2013-05-12 18:37:00,
2013-05-12 14:42:00,77.0,34.1,29.88,ESE,112,0.0,0.0,21,0.00,CLR,,0.00,WeatherDisplay:10.37,2013-05-12 18:42:00,
2013-05-12 14:47:00,77.4,34.4,29.88,SE,135,0.0,0.0,21,0.00,CLR,,0.00,WeatherDisplay:10.37,2013-05-12 18:47:00,
2013-05-12 14:53:00,76.3,34.6,29.88,ENE,68,0.0,0.0,22,0.00,CLR,,0.00,WeatherDisplay:10.37,2013-05-12 18:53:00,
2013-05-12 14:58:00,76.5,33.6,29.88,ENE,68,0.0,0.0,21,0.00,CLR,,0.00,WeatherDisplay:10.37,2013-05-12 18:58:00,
2013-05-12 15:03:00,77.7,34.7,29.88,ENE,68,0.0,0.0,21,0.00,CLR,,0.00,WeatherDisplay:10.37,2013-05-12 19:03:00,
2013-05-12 15:08:00,77.0,34.1,29.88,East,90,0.0,0.0,21,0.00,CLR,,0.00,WeatherDisplay:10.37,2013-05-12 19:08:00,
2013-05-12 15:13:00,78.4,35.2,29.88,NW,315,0.0,0.0,21,0.00,CLR,,0.00,WeatherDisplay:10.37,2013-05-12 19:13:00,
2013-05-12 15:18:00,78.8,34.3,29.88,SE,135,7.6,0.0,20,0.00,CLR,,0.00,WeatherDisplay:10.37,2013-05-12 19:18:00,
2013-05-12 15:23:00,77.4,33.1,29.88,ESE,112,0.0,0.0,20,0.00,CLR,,0.00,WeatherDisplay:10.37,2013-05-12 19:23:00,
2013-05-12 15:28:00,76.8,32.7,29.88,NNE,22,4.6,0.0,20,0.00,CLR,,0.00,WeatherDisplay:10.37,2013-05-12 19:28:00,
2013-05-12 15:33:00,78.3,33.9,29.88,NE,45,0.0,0.0,20,0.00,CLR,,0.00,WeatherDisplay:10.37,2013-05-12 19:33:00,
2013-05-12 15:38:00,78.3,33.9,29.88,ESE,112,0.0,0.0,20,0.00,CLR,,0.00,WeatherDisplay:10.37,2013-05-12 19:38:00,
2013-05-12 15:43:00,79.2,34.6,29.88,NE,45,0.0,0.0,20,0.00,CLR,,0.00,WeatherDisplay:10.37,2013-05-12 19:43:00,
2013-05-12 15:48:00,77.9,33.6,29.88,East,90,0.0,0.0,20,0.00,CLR,,0.00,WeatherDisplay:10.37,2013-05-12 19:48:00,
2013-05-12 15:53:00,78.3,33.9,29.88,NW,315,0.0,0.0,20,0.00,CLR,,0.00,WeatherDisplay:10.37,2013-05-12 19:53:00,
2013-05-12 15:58:00,77.2,33.0,29.88,NW,315,0.0,0.0,20,0.00,CLR,,0.00,WeatherDisplay:10.37,2013-05-12 19:58:00,
2013-05-12 16:03:00,77.7,33.4,29.88,NW,315,0.0,0.0,20,0.00,CLR,,0.00,WeatherDisplay:10.37,2013-05-12 20:03:00,
2013-05-12 16:08:00,78.8,34.3,29.88,NW,315,0.0,0.0,20,0.00,CLR,,0.00,WeatherDisplay:10.37,2013-05-12 20:08:00,
2013-05-12 16:13:00,78.6,31.5,29.85,NW,315,0.0,0.0,18,0.00,CLR,,0.00,WeatherDisplay:10.37,2013-05-12 20:13:00,
2013-05-12 16:18:00,77.4,30.5,29.85,NW,315,0.0,0.0,18,0.00,CLR,,0.00,WeatherDisplay:10.37,2013-05-12 20:18:00,
2013-05-12 16:23:00,76.8,30.1,29.85,NW,315,0.0,0.0,18,0.00,CLR,,0.00,WeatherDisplay:10.37,2013-05-12 20:23:00,
2013-05-12 16:28:00,78.1,33.7,29.85,NW,315,0.0,0.0,20,0.00,CLR,,0.00,WeatherDisplay:10.37,2013-05-12 20:28:00,
2013-05-12 16:33:00,76.8,32.7,29.85,NW,315,0.0,0.0,20,0.00,CLR,,0.00,WeatherDisplay:10.37,2013-05-12 20:33:00,
2013-05-12 16:38:00,77.7,33.4,29.85,NE,45,0.0,0.0,20,0.00,CLR,,0.00,WeatherDisplay:10.37,2013-05-12 20:38:00,
2013-05-12 16:43:00,78.1,33.7,29.85,NE,45,0.0,0.0,20,0.00,CLR,,0.00,WeatherDisplay:10.37,2013-05-12 20:43:00,
2013-05-12 16:48:00,75.9,29.3,29.85,NNE,22,0.0,0.0,18,0.00,CLR,,0.00,WeatherDisplay:10.37,2013-05-12 20:48:00,
2013-05-12 16:53:00,76.8,30.1,29.85,NNE,22,0.0,0.0,18,0.00,CLR,,0.00,WeatherDisplay:10.37,2013-05-12 20:53:00,
2013-05-12 16:58:00,76.1,29.5,29.88,NE,45,3.5,0.0,18,0.00,CLR,,0.00,WeatherDisplay:10.37,2013-05-12 20:58:00,
2013-05-12 17:03:00,75.9,29.3,29.88,NE,45,0.0,0.0,18,0.00,CLR,,0.00,WeatherDisplay:10.37,2013-05-12 21:03:00,
2013-05-12 17:08:00,76.1,29.5,29.88,North,0,0.0,0.0,18,0.00,CLR,,0.00,WeatherDisplay:10.37,2013-05-12 21:08:00,
2013-05-12 17:13:00,74.5,28.2,29.88,North,0,0.0,0.0,18,0.00,CLR,,0.00,WeatherDisplay:10.37,2013-05-12 21:13:00,
2013-05-12 17:18:00,74.3,28.0,29.88,NE,45,0.0,0.0,18,0.00,CLR,,0.00,WeatherDisplay:10.37,2013-05-12 21:18:00,
2013-05-12 17:23:00,73.2,28.5,29.88,SSE,158,0.0,0.0,19,0.00,CLR,,0.00,WeatherDisplay:10.37,2013-05-12 21:23:00,
2013-05-12 17:28:00,71.8,27.3,29.88,NW,315,0.0,0.0,19,0.00,CLR,,0.00,WeatherDisplay:10.37,2013-05-12 21:28:00,
2013-05-12 17:33:00,71.6,29.6,29.88,NW,315,0.0,0.0,21,0.00,CLR,,0.00,WeatherDisplay:10.37,2013-05-12 21:33:00,
2013-05-12 17:38:00,70.7,30.0,29.88,NW,315,0.0,0.0,22,0.00,CLR,,0.00,WeatherDisplay:10.37,2013-05-12 21:38:00,
2013-05-12 17:43:00,70.2,25.9,29.88,SSW,202,0.0,0.0,19,0.00,CLR,,0.00,WeatherDisplay:10.37,2013-05-12 21:43:00,
2013-05-12 17:48:00,70.3,29.7,29.88,SSW,202,0.0,0.0,22,0.00,CLR,,0.00,WeatherDisplay:10.37,2013-05-12 21:48:00,
2013-05-12 17:53:00,69.8,29.2,29.88,SSW,202,0.0,0.0,22,0.00,CLR,,0.00,WeatherDisplay:10.37,2013-05-12 21:53:00,
2013-05-12 17:58:00,69.6,26.7,29.88,SSW,202,0.0,0.0,20,0.00,CLR,,0.00,WeatherDisplay:10.37,2013-05-12 21:58:00,
2013-05-12 18:03:00,69.6,26.7,29.88,SSW,202,0.0,0.0,20,0.00,CLR,,0.00,WeatherDisplay:10.37,2013-05-12 22:03:00,
2013-05-12 18:08:00,69.3,28.8,29.88,SSW,202,0.0,0.0,22,0.00,CLR,,0.00,WeatherDisplay:10.37,2013-05-12 22:08:00,
2013-05-12 18:13:00,69.1,26.3,29.88,SSW,202,0.0,0.0,20,0.00,CLR,,0.00,WeatherDisplay:10.37,2013-05-12 22:13:00,
2013-05-12 18:18:00,69.1,26.3,29.88,SSW,202,0.0,0.0,20,0.00,CLR,,0.00,WeatherDisplay:10.37,2013-05-12 22:18:00,
2013-05-12 18:23:00,69.1,28.6,29.88,SSW,202,0.0,0.0,22,0.00,CLR,,0.00,WeatherDisplay:10.37,2013-05-12 22:23:00,
2013-05-12 18:28:00,68.7,28.3,29.88,SSW,202,0.0,0.0,22,0.00,CLR,,0.00,WeatherDisplay:10.37,2013-05-12 22:28:00,
2013-05-12 18:33:00,68.5,28.2,29.88,SSW,202,0.0,0.0,22,0.00,CLR,,0.00,WeatherDisplay:10.37,2013-05-12 22:33:00,
2013-05-12 18:38:00,68.5,25.8,29.88,SSW,202,0.0,0.0,20,0.00,CLR,,0.00,WeatherDisplay:10.37,2013-05-12 22:38:00,
2013-05-12 18:43:00,68.5,25.8,29.88,SSW,202,0.0,0.0,20,0.00,CLR,,0.00,WeatherDisplay:10.37,2013-05-12 22:43:00,
2013-05-12 18:48:00,68.2,27.9,29.91,SSW,202,0.0,0.0,22,0.00,CLR,,0.00,WeatherDisplay:10.37,2013-05-12 22:48:00,
2013-05-12 18:53:00,68.0,27.7,29.91,SSW,202,0.0,0.0,22,0.00,CLR,,0.00,WeatherDisplay:10.37,2013-05-12 22:53:00,
2013-05-12 18:58:00,67.8,28.6,29.91,SSW,202,0.0,0.0,23,0.00,CLR,,0.00,WeatherDisplay:10.37,2013-05-12 22:58:00,
2013-05-12 19:03:00,67.3,28.2,29.91,SSW,202,0.0,0.0,23,0.00,CLR,,0.00,WeatherDisplay:10.37,2013-05-12 23:03:00,
2013-05-12 19:08:00,67.5,27.2,29.91,SSW,202,0.0,0.0,22,0.00,CLR,,0.00,WeatherDisplay:10.37,2013-05-12 23:08:00,
2013-05-12 19:13:00,67.1,28.0,29.91,SSW,202,0.0,0.0,23,0.00,CLR,,0.00,WeatherDisplay:10.37,2013-05-12 23:13:00,
2013-05-12 19:18:00,66.7,27.7,29.91,SSW,202,0.0,0.0,23,0.00,CLR,,0.00,WeatherDisplay:10.37,2013-05-12 23:18:00,
2013-05-12 19:23:00,66.6,27.6,29.91,SSW,202,0.0,0.0,23,0.00,CLR,,0.00,WeatherDisplay:10.37,2013-05-12 23:23:00,
2013-05-12 19:28:00,66.2,28.3,29.91,SSW,202,0.0,0.0,24,0.00,CLR,,0.00,WeatherDisplay:10.37,2013-05-12 23:28:00,
2013-05-12 19:33:00,66.0,27.1,29.91,SSW,202,0.0,0.0,23,0.00,CLR,,0.00,WeatherDisplay:10.37,2013-05-12 23:33:00,
2013-05-12 19:38:00,65.8,27.0,29.91,SSW,202,0.0,0.0,23,0.00,CLR,,0.00,WeatherDisplay:10.37,2013-05-12 23:38:00,
2013-05-12 19:43:00,65.7,26.8,29.91,SSW,202,0.0,0.0,23,0.00,CLR,,0.00,WeatherDisplay:10.37,2013-05-12 23:43:00,
2013-05-12 19:48:00,65.5,26.7,29.91,SSW,202,0.0,0.0,23,0.00,CLR,,0.00,WeatherDisplay:10.37,2013-05-12 23:48:00,
2013-05-12 19:53:00,65.1,26.4,29.91,SSW,202,0.0,0.0,23,0.00,CLR,,0.00,WeatherDisplay:10.37,2013-05-12 23:53:00,
2013-05-12 19:58:00,64.8,27.1,29.94,SSW,202,0.0,0.0,24,0.00,CLR,,0.00,WeatherDisplay:10.37,2013-05-12 23:58:00,
2013-05-12 20:03:00,64.6,26.9,29.94,SSW,202,0.0,0.0,24,0.00,CLR,,0.00,WeatherDisplay:10.37,2013-05-13 00:03:00,
2013-05-12 20:08:00,64.0,28.4,29.94,SSW,202,0.0,0.0,26,0.00,CLR,,0.00,WeatherDisplay:10.37,2013-05-13 00:08:00,
2013-05-12 20:13:00,63.5,27.0,29.94,SSW,202,0.0,0.0,25,0.00,CLR,,0.00,WeatherDisplay:10.37,2013-05-13 00:13:00,
2013-05-12 20:18:00,63.5,28.0,29.94,SSW,202,0.0,0.0,26,0.00,CLR,,0.00,WeatherDisplay:10.37,2013-05-13 00:18:00,
2013-05-12 20:23:00,63.1,29.5,29.94,SSW,202,0.0,0.0,28,0.00,CLR,,0.00,WeatherDisplay:10.37,2013-05-13 00:23:00,
2013-05-12 20:28:00,62.8,31.7,29.94,SSW,202,0.0,0.0,31,0.00,CLR,,0.00,WeatherDisplay:10.37,2013-05-13 00:28:00,
2013-05-12 20:33:00,62.6,33.1,29.94,SSW,202,0.0,0.0,33,0.00,CLR,,0.00,WeatherDisplay:10.37,2013-05-13 00:33:00,
2013-05-12 20:38:00,62.1,34.1,29.94,SSW,202,0.0,0.0,35,0.00,CLR,,0.00,WeatherDisplay:10.37,2013-05-13 00:38:00,
2013-05-12 20:43:00,61.7,33.7,29.94,SSW,202,0.0,0.0,35,0.00,CLR,,0.00,WeatherDisplay:10.37,2013-05-13 00:43:00,
2013-05-12 20:48:00,61.3,34.1,29.94,SSW,202,0.0,0.0,36,0.00,CLR,,0.00,WeatherDisplay:10.37,2013-05-13 00:48:00,
2013-05-12 20:53:00,60.8,33.7,29.94,SSW,202,0.0,0.0,36,0.00,CLR,,0.00,WeatherDisplay:10.37,2013-05-13 00:53:00,
2013-05-12 20:58:00,60.3,33.9,29.94,SSW,202,0.0,0.0,37,0.00,CLR,,0.00,WeatherDisplay:10.37,2013-05-13 00:58:00,
2013-05-12 21:03:00,60.1,33.7,29.94,SSW,202,0.0,0.0,37,0.00,CLR,,0.00,WeatherDisplay:10.37,2013-05-13 01:03:00,
2013-05-12 21:08:00,59.5,33.9,29.94,SSW,202,0.0,0.0,38,0.00,CLR,,0.00,WeatherDisplay:10.37,2013-05-13 01:08:00,
2013-05-12 21:13:00,59.4,34.4,29.97,SSW,202,0.0,0.0,39,0.00,CLR,,0.00,WeatherDisplay:10.37,2013-05-13 01:13:00,
2013-05-12 21:18:00,59.2,34.9,29.97,SSW,202,0.0,0.0,40,0.00,CLR,,0.00,WeatherDisplay:10.37,2013-05-13 01:18:00,
2013-05-12 21:23:00,58.8,35.8,29.97,SSW,202,0.0,0.0,42,0.00,CLR,,0.00,WeatherDisplay:10.37,2013-05-13 01:23:00,
2013-05-12 21:28:00,58.5,34.8,29.97,SSW,202,0.0,0.0,41,0.00,CLR,,0.00,WeatherDisplay:10.37,2013-05-13 01:28:00,
2013-05-12 21:33:00,58.1,34.5,29.97,SSW,202,0.0,0.0,41,0.00,CLR,,0.00,WeatherDisplay:10.37,2013-05-13 01:33:00,
2013-05-12 21:38:00,57.6,32.8,29.97,SSW,202,0.0,0.0,39,0.00,CLR,,0.00,WeatherDisplay:10.37,2013-05-13 01:38:00,
2013-05-12 21:43:00,57.2,32.4,30.00,SSW,202,0.0,0.0,39,0.00,CLR,,0.00,WeatherDisplay:10.37,2013-05-13 01:43:00,
2013-05-12 21:48:00,56.8,33.4,30.00,SSW,202,0.0,0.0,41,0.00,CLR,,0.00,WeatherDisplay:10.37,2013-05-13 01:48:00,
2013-05-12 21:53:00,56.5,33.0,30.00,SSW,202,0.0,0.0,41,0.00,CLR,,0.00,WeatherDisplay:10.37,2013-05-13 01:53:00,
2013-05-12 21:58:00,56.1,33.9,30.00,SSW,202,0.0,0.0,43,0.00,CLR,,0.00,WeatherDisplay:10.37,2013-05-13 01:58:00,
2013-05-12 22:03:00,55.9,34.9,30.00,SSW,202,0.0,0.0,45,0.00,CLR,,0.00,WeatherDisplay:10.37,2013-05-13 02:03:00,
2013-05-12 22:08:00,55.4,34.4,30.00,SSW,202,0.0,0.0,45,0.00,CLR,,0.00,WeatherDisplay:10.37,2013-05-13 02:08:00,
2013-05-12 22:13:00,55.2,34.2,30.00,SSW,202,0.0,0.0,45,0.00,CLR,,0.00,WeatherDisplay:10.37,2013-05-13 02:13:00,
2013-05-12 22:18:00,55.0,32.9,30.00,SSW,202,0.0,0.0,43,0.00,CLR,,0.00,WeatherDisplay:10.37,2013-05-13 02:18:00,
2013-05-12 22:23:00,54.7,31.4,30.00,SSW,202,0.0,0.0,41,0.00,CLR,,0.00,WeatherDisplay:10.37,2013-05-13 02:23:00,
2013-05-12 22:28:00,54.5,30.6,30.00,SSW,202,0.0,0.0,40,0.00,CLR,,0.00,WeatherDisplay:10.37,2013-05-13 02:28:00,
2013-05-12 22:33:00,54.5,30.6,30.00,SSW,202,0.0,0.0,40,0.00,CLR,,0.00,WeatherDisplay:10.37,2013-05-13 02:33:00,
2013-05-12 22:38:00,54.5,31.3,30.00,SSW,202,0.0,0.0,41,0.00,CLR,,0.00,WeatherDisplay:10.37,2013-05-13 02:38:00,
2013-05-12 22:43:00,54.3,29.9,30.00,SSW,202,0.0,0.0,39,0.00,CLR,,0.00,WeatherDisplay:10.37,2013-05-13 02:43:00,
2013-05-12 22:48:00,54.1,29.7,30.00,SSW,202,0.0,0.0,39,0.00,CLR,,0.00,WeatherDisplay:10.37,2013-05-13 02:48:00,
2013-05-12 22:53:00,54.0,31.4,30.00,SSW,202,0.0,0.0,42,0.00,CLR,,0.00,WeatherDisplay:10.37,2013-05-13 02:53:00,
2013-05-12 22:58:00,54.0,30.2,30.00,SSW,202,0.0,0.0,40,0.00,CLR,,0.00,WeatherDisplay:10.37,2013-05-13 02:58:00,
2013-05-12 23:03:00,54.0,28.9,30.00,SSW,202,0.0,0.0,38,0.00,CLR,,0.00,WeatherDisplay:10.37,2013-05-13 03:03:00,
2013-05-12 23:08:00,54.0,28.3,30.00,SSW,202,0.0,0.0,37,0.00,CLR,,0.00,WeatherDisplay:10.37,2013-05-13 03:08:00,
2013-05-12 23:13:00,53.8,28.1,30.00,SSW,202,0.0,0.0,37,0.00,CLR,,0.00,WeatherDisplay:10.37,2013-05-13 03:13:00,
2013-05-12 23:18:00,53.8,28.1,30.00,SSW,202,0.0,0.0,37,0.00,CLR,,0.00,WeatherDisplay:10.37,2013-05-13 03:18:00,
2013-05-12 23:23:00,53.8,28.1,30.00,SSW,202,0.0,0.0,37,0.00,CLR,,0.00,WeatherDisplay:10.37,2013-05-13 03:23:00,
2013-05-12 23:28:00,53.8,27.4,30.00,SSW,202,0.0,0.0,36,0.00,CLR,,0.00,WeatherDisplay:10.37,2013-05-13 03:28:00,
2013-05-12 23:33:00,53.6,27.9,30.00,SSW,202,0.0,0.0,37,0.00,CLR,,0.00,WeatherDisplay:10.37,2013-05-13 03:33:00,
2013-05-12 23:38:00,53.6,28.6,30.00,SSW,202,0.0,0.0,38,0.00,CLR,,0.00,WeatherDisplay:10.37,2013-05-13 03:38:00,
2013-05-12 23:43:00,53.4,28.4,30.00,SSW,202,0.0,0.0,38,0.00,CLR,,0.00,WeatherDisplay:10.37,2013-05-13 03:43:00,
2013-05-12 23:48:00,53.2,28.3,30.00,SSW,202,0.0,0.0,38,0.00,CLR,,0.00,WeatherDisplay:10.37,2013-05-13 03:48:00,
2013-05-12 23:53:00,53.2,28.3,30.00,SSW,202,0.0,0.0,38,0.00,CLR,,0.00,WeatherDisplay:10.37,2013-05-13 03:53:00,
2013-05-12 23:58:00,53.1,28.7,30.00,SSW,202,0.0,0.0,39,0.00,CLR,,0.00,WeatherDisplay:10.37,2013-05-13 03:58:00,